[[{"header":{"parameterUnit":"m.s-1","parameterCategory":1,"la1":30.2991,"la2":30.254,"lo1":-89.0895,"lo2":-89.0444,"dy":0.0017,"dx":0.0017,"nx":28,"ny":28,"refTime":"2024-03-29T21:00:00:Z","depth":0,"parameterNumber":2,"parameterNumberName":"U-component_of_WINDS"},"data":[0,0,0,0,0,0,0,0,0,0,0,0,0,0,0,0,0,0,0,0,0,0,0,0,0,0,0,0,0,0,0,0,0,0,0,0,0,0,0,0,0,0,0,0,0,0,0,0,0,0,0,0,0,0,0,0,0,0,-0.9003,-0.9003,0,-0.903,-0.9031,-0.9031,-0.9065,-0.9066,-0.9067,-0.9067,-0.9095,-0.9095,-0.9096,0,0,0,0,0,0,0,0,0,0,0,0,0,-0.898,-0.898,-0.9003,-0.9003,-0.9004,-0.903,-0.9031,-0.9031,-0.9065,-0.9066,-0.9067,-0.9067,-0.9095,-0.9095,-0.9096,0,0,0,0,0,0,0,0,0,0,0,0,0,-0.8997,-0.898,-0.9003,-0.9024,-0.9026,-0.903,-0.9031,-0.9031,-0.9065,-0.9066,-0.9067,-0.9068,-0.9095,-0.9095,-0.9096,-0.9081,0,0,-0.9097,-0.9097,0,0,0,0,0,0,0,0,-0.8996,-0.8998,-0.9021,-0.9023,-0.9025,-0.9045,-0.9033,-0.9048,-0.9065,-0.905,-0.9067,-0.9068,-0.9078,-0.908,-0.9083,-0.9082,-0.9084,-0.9097,-0.9097,-0.9097,-0.9097,0,0,0,0,0,0,0,-0.8995,-0.8997,-0.9014,-0.9021,-0.9023,-0.9032,-0.9035,-0.9036,-0.9059,-0.9052,-0.9054,-0.9057,-0.9079,-0.9083,-0.9084,-0.9084,-0.9097,-0.9097,-0.9097,-0.9097,-0.9072,-0.9071,0,0,0,0,0,0,-0.899,-0.8996,-0.9013,-0.9015,-0.9012,-0.9032,-0.9035,-0.9038,-0.9059,-0.9063,-0.9056,-0.9059,-0.9082,-0.9083,-0.9085,-0.9068,-0.9097,-0.9097,-0.9098,-0.9073,-0.9071,-0.907,0,0,0,0,0,0,-0.899,-0.8992,-0.9012,-0.9006,-0.9009,-0.9031,-0.9034,-0.9038,-0.9041,-0.9063,-0.9067,-0.9055,-0.9082,-0.9085,-0.9082,-0.907,-0.9098,-0.9098,-0.9074,-0.9072,-0.9071,-0.9036,0,0,0,0,0,0,-0.8989,-0.8991,-0.8986,-0.9005,-0.9009,-0.9008,-0.9033,-0.9038,-0.9042,-0.9045,-0.9063,-0.9067,-0.9083,-0.9081,-0.9082,-0.9071,-0.9098,-0.9075,-0.9073,-0.9071,-0.9038,-0.9033,-0.9029,0,0,0,0,0,-0.8988,-0.8975,-0.8986,-0.8988,-0.9003,-0.9007,-0.9009,-0.9028,-0.9041,-0.9036,-0.9049,-0.9066,-0.9071,-0.908,-0.9082,-0.9071,-0.9076,-0.9073,-0.9072,-0.904,-0.9034,-0.9029,0,0,0,0,0,0,-0.8955,-0.8978,-0.899,-0.8983,-0.8993,-0.9013,-0.9007,-0.9022,-0.9028,-0.9031,-0.9055,-0.9058,-0.9052,-0.9061,-0.9071,-0.9057,-0.9076,-0.9074,-0.9051,-0.9046,-0.9042,-0.9039,-0.9098,0,0,0,0,0,-0.8946,-0.8947,-0.8968,-0.896,-0.8964,-0.8985,-0.8987,-0.9001,-0.9012,-0.9016,-0.903,-0.904,-0.9043,-0.9045,-0.905,-0.904,-0.9043,-0.9033,-0.9028,-0.9025,-0.9022,-0.9016,-0.9011,-0.9064,-0.9064,-0.9064,0,0,-0.8929,-0.8943,-0.8942,-0.8954,-0.8963,-0.8963,-0.8988,-0.8988,-0.8988,-0.9016,-0.9014,-0.9024,-0.9037,-0.9029,-0.9027,-0.9037,-0.9009,-0.9022,-0.9019,-0.9019,-0.9014,-0.9009,-0.9004,-0.9063,-0.9063,-0.9063,0,0,-0.8899,-0.8909,-0.8903,-0.8911,-0.8924,-0.8938,-0.8936,-0.8954,-0.8962,-0.896,-0.898,-0.8981,-0.8987,-0.8995,-0.9,-0.8971,-0.8986,-0.8972,-0.8949,-0.8942,-0.8938,-0.8935,-0.8923,-0.8919,-0.897,-0.897,-0.8969,0,-0.8876,-0.8877,-0.8898,-0.8896,-0.89,-0.8925,-0.8919,-0.8926,-0.894,-0.8942,-0.8953,-0.896,-0.8971,-0.8965,-0.8958,-0.8961,-0.896,-0.8969,-0.8937,-0.8934,-0.8931,-0.892,-0.8915,-0.8968,-0.8968,-0.8968,-0.8968,0,-0.8848,-0.8849,-0.8842,-0.8854,-0.8858,-0.8854,-0.8873,-0.8874,-0.8888,-0.89,-0.8897,-0.891,-0.8917,-0.8917,-0.893,-0.8913,-0.8918,-0.8933,-0.8952,-0.8923,-0.8913,-0.891,-0.8965,-0.8965,-0.8966,-0.8967,0,0,-0.8797,-0.882,-0.8817,-0.8823,-0.8839,-0.8839,-0.8836,-0.8843,-0.8843,-0.8851,-0.8848,-0.8853,-0.8866,-0.8871,-0.8885,-0.888,-0.8854,-0.8895,-0.8896,-0.8886,-0.8834,-0.8822,-0.8817,-0.8865,-0.8864,-0.8864,-0.8833,0,-0.8769,-0.8764,-0.8782,-0.8772,-0.8772,-0.8796,-0.8793,-0.8802,-0.8813,-0.8814,-0.8827,-0.8829,-0.8847,-0.885,-0.8846,-0.8858,-0.8844,-0.8861,-0.8862,-0.8861,-0.8857,-0.8812,-0.88,-0.877,-0.8829,-0.8829,-0.8828,0,-0.8735,-0.8741,-0.8731,-0.8746,-0.8747,-0.8744,-0.8751,-0.8752,-0.8763,-0.8771,-0.8776,-0.8793,-0.879,-0.8808,-0.8804,-0.8815,-0.8817,-0.8823,-0.8822,-0.8822,-0.8842,-0.881,-0.8762,-0.8756,-0.8823,-0.8823,-0.8823,0,-0.8697,-0.8703,-0.8698,-0.8702,-0.872,-0.8717,-0.8724,-0.8735,-0.8738,-0.8744,-0.8745,-0.8751,-0.8754,-0.8758,-0.8775,-0.8787,-0.8768,-0.8789,-0.8774,-0.8774,-0.8769,-0.8768,-0.8718,-0.8771,-0.8771,-0.8771,-0.8771,0,-0.8663,-0.8656,-0.8681,-0.8677,-0.8669,-0.869,-0.8682,-0.8691,-0.8701,-0.87,-0.8721,-0.8719,-0.8742,-0.8742,-0.8756,-0.8749,-0.8751,-0.8757,-0.876,-0.8754,-0.8753,-0.8755,-0.8757,-0.877,-0.877,-0.8771,-0.8771,0,-0.862,-0.8636,-0.8631,-0.8648,-0.8652,-0.8646,-0.866,-0.8658,-0.867,-0.8667,-0.8668,-0.8687,-0.8688,-0.8706,-0.8711,-0.872,-0.8708,-0.8716,-0.8704,-0.8706,-0.869,-0.8691,-0.8638,-0.8632,-0.869,-0.8689,-0.8689,0,-0.8596,-0.8591,-0.8607,-0.8607,-0.8613,-0.8614,-0.8616,-0.8636,-0.8637,-0.8648,-0.8644,-0.8647,-0.865,-0.8651,-0.8665,-0.8669,-0.8677,-0.8658,-0.8677,-0.8671,-0.8675,-0.8674,-0.8673,-0.8653,-0.8653,-0.8652,-0.8652,0,-0.8553,-0.8561,-0.8563,-0.8568,-0.857,-0.8575,-0.8581,-0.858,-0.8601,-0.8602,-0.8603,-0.8606,-0.8611,-0.8613,-0.8619,-0.8627,-0.8642,-0.8645,-0.8642,-0.8635,-0.8628,-0.863,-0.8692,-0.8646,-0.8647,-0.8647,-0.8648,-0.8648,-0.8518,-0.8514,-0.8524,-0.8525,-0.8532,-0.8537,-0.8535,-0.8546,-0.8547,-0.8553,-0.8564,-0.8563,-0.8573,-0.8583,-0.8589,-0.8588,-0.8598,-0.8593,-0.8592,-0.859,-0.8586,-0.8629,-0.8589,-0.859,-0.859,-0.859,-0.859,0,-0.8474,-0.8482,-0.8483,-0.849,-0.8491,-0.8506,-0.8513,-0.8513,-0.8512,-0.8519,-0.8522,-0.8522,-0.8525,-0.8538,-0.8542,-0.8538,-0.8545,-0.8538,-0.8538,-0.8539,-0.8578,-0.858,-0.8533,-0.8533,-0.8533,-0.8533,-0.8533,-0.8533,-0.8452,-0.8445,-0.8454,-0.845,-0.8458,-0.8457,-0.846,-0.8464,-0.847,-0.847,-0.8471,-0.848,-0.849,-0.8494,-0.8496,-0.85,-0.85,-0.849,-0.8496,-0.8532,-0.8537,-0.8542,-0.8544,-0.849,-0.849,-0.8457,-0.8457,-0.8457]},{"header":{"parameterUnit":"m.s-1","parameterCategory":1,"la1":30.2991,"la2":30.254,"lo1":-89.0895,"lo2":-89.0444,"dy":0.0017,"dx":0.0017,"nx":28,"ny":28,"refTime":"2024-03-29T21:00:00:Z","depth":0,"parameterNumber":3,"parameterNumberName":"V-component_of_WINDS"},"data":[0,0,0,0,0,0,0,0,0,0,0,0,0,0,0,0,0,0,0,0,0,0,0,0,0,0,0,0,0,0,0,0,0,0,0,0,0,0,0,0,0,0,0,0,0,0,0,0,0,0,0,0,0,0,0,0,0,0,1.4872,1.4873,0,1.4986,1.4988,1.4989,1.4965,1.4963,1.4961,1.4959,1.5075,1.508,1.5085,0,0,0,0,0,0,0,0,0,0,0,0,0,1.4631,1.4636,1.4872,1.4873,1.4874,1.4986,1.4988,1.4989,1.4965,1.4963,1.496,1.4958,1.5074,1.508,1.5086,0,0,0,0,0,0,0,0,0,0,0,0,0,1.474,1.4637,1.4871,1.4876,1.4877,1.4986,1.4988,1.499,1.4966,1.4963,1.4959,1.4956,1.5072,1.5079,1.5087,1.5197,0,0,1.511,1.5113,0,0,0,0,0,0,0,0,1.4734,1.4749,1.4874,1.4876,1.4878,1.4958,1.4946,1.5059,1.4967,1.4932,1.4959,1.4955,1.5039,1.5049,1.5077,1.5203,1.5208,1.5111,1.5115,1.5119,1.5121,0,0,0,0,0,0,0,1.4726,1.4743,1.4917,1.4876,1.4878,1.4872,1.4884,1.4967,1.5002,1.4935,1.4934,1.4947,1.5039,1.507,1.508,1.521,1.511,1.5117,1.5122,1.5125,1.5432,1.5435,0,0,0,0,0,0,1.4717,1.4737,1.4913,1.492,1.4796,1.4879,1.4892,1.4935,1.5001,1.5008,1.495,1.4946,1.5059,1.5071,1.5084,1.5219,1.5119,1.5126,1.513,1.5428,1.5433,1.5436,0,0,0,0,0,0,1.4712,1.4733,1.4909,1.4829,1.485,1.4886,1.4935,1.4939,1.497,1.5012,1.5018,1.4975,1.5057,1.5073,1.517,1.5222,1.5129,1.5136,1.5424,1.543,1.5434,1.5488,0,0,0,0,0,0,1.4705,1.4731,1.4774,1.483,1.4855,1.4993,1.4938,1.4944,1.4984,1.4979,1.5038,1.5044,1.5055,1.5158,1.5177,1.5231,1.5142,1.5419,1.5426,1.5433,1.5482,1.5495,1.5506,0,0,0,0,0,1.4697,1.4784,1.4776,1.4798,1.4909,1.4996,1.501,1.5022,1.4988,1.5031,1.5058,1.5042,1.5213,1.5168,1.5189,1.5246,1.5416,1.5424,1.5432,1.5476,1.5492,1.5505,0,0,0,0,0,0,1.4734,1.4792,1.4783,1.4892,1.4939,1.4992,1.5046,1.5038,1.5095,1.5089,1.51,1.5114,1.5212,1.5238,1.5187,1.5357,1.531,1.5322,1.5336,1.5351,1.5363,1.5355,1.5148,0,0,0,0,0,1.4754,1.482,1.4867,1.4958,1.4982,1.501,1.5049,1.5053,1.5103,1.5122,1.5156,1.5205,1.5269,1.5312,1.5373,1.5485,1.5498,1.5535,1.5546,1.5556,1.5567,1.5629,1.5646,1.5463,1.5463,1.5463,0,0,1.4798,1.4838,1.4879,1.4967,1.5004,1.5072,1.5027,1.5101,1.5151,1.5133,1.5227,1.5253,1.5308,1.5413,1.546,1.5438,1.562,1.5566,1.5574,1.558,1.5639,1.5656,1.5671,1.5468,1.5467,1.5466,0,0,1.4913,1.4949,1.5029,1.5067,1.5124,1.5142,1.5161,1.5215,1.5232,1.5326,1.5314,1.5374,1.5485,1.5524,1.5559,1.5688,1.5676,1.5707,1.577,1.583,1.5844,1.5857,1.5904,1.5921,1.5718,1.5718,1.5718,0,1.496,1.5062,1.5071,1.5147,1.5186,1.5172,1.5254,1.529,1.5364,1.5391,1.5365,1.5504,1.554,1.5654,1.5685,1.5713,1.5736,1.5702,1.5842,1.5855,1.5867,1.5912,1.5929,1.5722,1.5721,1.5721,1.5721,0,1.5117,1.5188,1.5246,1.5318,1.5363,1.5441,1.5463,1.5507,1.5508,1.5528,1.5624,1.5666,1.5736,1.5763,1.5764,1.5878,1.5862,1.5839,1.5792,1.5888,1.593,1.5947,1.5727,1.5726,1.5725,1.5724,0,0,1.526,1.5336,1.5357,1.5389,1.5451,1.5506,1.5583,1.5651,1.569,1.5741,1.5806,1.59,1.5879,1.5918,1.5923,1.5976,1.6076,1.5946,1.5947,1.5969,1.6204,1.6222,1.6242,1.6068,1.6071,1.6074,1.62,0,1.538,1.5517,1.5527,1.565,1.5716,1.5703,1.577,1.5815,1.5836,1.5895,1.5918,1.5985,1.5951,1.5975,1.6026,1.6053,1.6123,1.6044,1.6129,1.6132,1.6117,1.6264,1.6284,1.6401,1.6216,1.6219,1.6221,0,1.554,1.5596,1.5726,1.5778,1.5806,1.5866,1.593,1.5986,1.6036,1.6048,1.6092,1.609,1.6169,1.6118,1.6227,1.6173,1.6208,1.6226,1.6231,1.624,1.6183,1.6279,1.6439,1.6457,1.6247,1.6245,1.6243,0,1.5632,1.574,1.5831,1.5859,1.5922,1.5965,1.5993,1.604,1.6081,1.6137,1.6163,1.6227,1.6263,1.6312,1.6327,1.6289,1.6436,1.6386,1.6449,1.6448,1.6481,1.6479,1.6651,1.6502,1.6502,1.6501,1.6501,0,1.5767,1.5847,1.5874,1.593,1.6019,1.603,1.6118,1.6143,1.6185,1.6247,1.6239,1.6297,1.6313,1.6373,1.6385,1.6474,1.649,1.6502,1.6504,1.6503,1.6502,1.6528,1.652,1.6506,1.6505,1.6504,1.6503,0,1.5885,1.5907,1.6006,1.6057,1.6071,1.6135,1.6179,1.6233,1.6252,1.633,1.6349,1.638,1.645,1.647,1.6554,1.6563,1.6668,1.6662,1.6651,1.6651,1.6713,1.6707,1.6908,1.6935,1.6767,1.6769,1.677,0,1.5971,1.6032,1.609,1.613,1.616,1.6225,1.6267,1.628,1.6323,1.6385,1.6432,1.6501,1.6558,1.6671,1.6701,1.6766,1.6763,1.6828,1.6772,1.677,1.6765,1.6762,1.6768,1.6839,1.6841,1.6843,1.6844,0,1.612,1.6127,1.6188,1.6252,1.6301,1.6352,1.6401,1.6435,1.6454,1.6504,1.6576,1.662,1.6706,1.6776,1.6841,1.6869,1.6861,1.6861,1.6879,1.6879,1.6871,1.6877,1.6681,1.6857,1.6855,1.6854,1.6854,1.6853,1.6226,1.6279,1.6329,1.6396,1.6434,1.648,1.6533,1.656,1.662,1.6692,1.6695,1.6774,1.6822,1.6909,1.6941,1.7003,1.6984,1.7009,1.7016,1.7023,1.7029,1.686,1.7015,1.7014,1.7014,1.7014,1.7014,0,1.6376,1.6406,1.6468,1.6537,1.659,1.6576,1.6629,1.6674,1.6744,1.679,1.6845,1.6929,1.6996,1.7031,1.7098,1.714,1.7138,1.7157,1.7155,1.7162,1.7042,1.702,1.7158,1.7158,1.7158,1.7158,1.7158,1.7158,1.646,1.6551,1.6564,1.6673,1.6703,1.6781,1.6812,1.6855,1.6891,1.6985,1.7041,1.7063,1.7105,1.7174,1.7235,1.7244,1.7269,1.7292,1.7298,1.7185,1.7171,1.7156,1.7136,1.7297,1.7297,1.7414,1.7415,1.7416]}]]